• In Hungary
  • List of Countries
  • For 7 days
  • Water Temperature
  • Satellite Maps
  • Weather Map
  • News
  • Weather Widgets
  • user-avatar
    Login

    Hourly Weather Chachapoyas

    Today, 15 November, Thursday

    Time Temperature Precipitation Wind Pressure Humidity
    00:00 +13°C° 0.1 mm 1 mps 573 mmHg 90%
    01:00 +12°C° 0 mm 0 mps 573 mmHg 92%
    02:00 +11°C° 0 mm 0 mps 573 mmHg 92%
    03:00 +11°C° 0 mm 0 mps 573 mmHg 91%
    04:00 +11°C° 0 mm 0 mps 573 mmHg 91%
    05:00 +12°C° 0 mm 0 mps 573 mmHg 87%
    06:00 +13°C° 0 mm 0 mps 574 mmHg 82%
    07:00 +14°C° 0 mm 0 mps 575 mmHg 78%
    08:00 +18°C° 0 mm 1 mps 576 mmHg 70%
    09:00 +20°C° 0 mm 1 mps 577 mmHg 61%
    10:00 +22°C° 0 mm 1 mps 578 mmHg 52%
    11:00 +22°C° 0.1 mm 1 mps 577 mmHg 54%
    12:00 +22°C° 0.1 mm 1 mps 577 mmHg 55%
    13:00 +21°C° 0.1 mm 2 mps 576 mmHg 56%
    14:00 +20°C° 0.5 mm 2 mps 575 mmHg 60%
    15:00 +20°C° 0.5 mm 2 mps 575 mmHg 65%
    16:00 +19°C° 0.5 mm 2 mps 574 mmHg 69%
    17:00 +18°C° 0.4 mm 1 mps 573 mmHg 76%
    18:00 +16°C° 0.4 mm 1 mps 573 mmHg 84%
    19:00 +13°C° 0.4 mm 0 mps 573 mmHg 91%
    20:00 +13°C° 0.2 mm 0 mps 573 mmHg 91%
    21:00 +13°C° 0.2 mm 0 mps 574 mmHg 92%
    22:00 +13°C° 0.2 mm 0 mps 574 mmHg 93%
    23:00 +13°C° 0.1 mm 0 mps 574 mmHg 93%

    Tomorrow, 16 November, Friday

    Time Temperature Precipitation Wind Pressure Humidity
    00:00 +12°C° 0.1 mm 0 mps 574 mmHg 94%
    01:00 +12°C° 0.1 mm 0 mps 574 mmHg 94%
    02:00 +12°C° 0.1 mm 0 mps 573 mmHg 94%
    03:00 +12°C° 0.1 mm 0 mps 573 mmHg 94%
    04:00 +11°C° 0.1 mm 0 mps 573 mmHg 94%
    05:00 +12°C° 0 mm 0 mps 573 mmHg 90%
    06:00 +13°C° 0 mm 0 mps 574 mmHg 87%
    07:00 +13°C° 0 mm 0 mps 574 mmHg 83%
    08:00 +18°C° 0 mm 1 mps 576 mmHg 72%
    09:00 +20°C° 0 mm 1 mps 577 mmHg 61%
    10:00 +23°C° 0 mm 1 mps 578 mmHg 51%
    11:00 +22°C° 0.3 mm 1 mps 578 mmHg 54%
    12:00 +21°C° 0.3 mm 2 mps 577 mmHg 58%
    13:00 +21°C° 0.3 mm 2 mps 576 mmHg 61%
    14:00 +21°C° 1 mm 1 mps 575 mmHg 66%
    15:00 +20°C° 1 mm 1 mps 575 mmHg 71%
    16:00 +19°C° 1 mm 1 mps 574 mmHg 76%
    17:00 +18°C° 1.6 mm 1 mps 574 mmHg 82%
    18:00 +16°C° 1.6 mm 1 mps 573 mmHg 87%
    19:00 +14°C° 1.6 mm 1 mps 573 mmHg 93%
    20:00 +13°C° 1.3 mm 0 mps 573 mmHg 93%
    21:00 +13°C° 1.3 mm 0 mps 574 mmHg 94%
    22:00 +13°C° 1.3 mm 0 mps 574 mmHg 94%
    23:00 +12°C° 0.6 mm 0 mps 574 mmHg 94%

    Day after tomorrow, 17 November, Saturday

    Time Temperature Precipitation Wind Pressure Humidity
    00:00 +12°C° 0.6 mm 0 mps 574 mmHg 94%
    01:00 +13°C° 0.6 mm 1 mps 574 mmHg 94%
    02:00 +13°C° 0.2 mm 1 mps 573 mmHg 94%
    03:00 +13°C° 0.2 mm 1 mps 573 mmHg 94%
    04:00 +13°C° 0.2 mm 1 mps 573 mmHg 94%
    05:00 +13°C° 0.1 mm 1 mps 573 mmHg 91%
    06:00 +13°C° 0.1 mm 0 mps 574 mmHg 89%
    07:00 +13°C° 0.1 mm 0 mps 574 mmHg 86%
    08:00 +16°C° 0.1 mm 1 mps 576 mmHg 76%
    09:00 +20°C° 0.1 mm 1 mps 577 mmHg 66%
    10:00 +22°C° 0.1 mm 1 mps 578 mmHg 55%
    11:00 +22°C° 0.5 mm 1 mps 578 mmHg 56%
    12:00 +22°C° 0.5 mm 1 mps 577 mmHg 57%
    13:00 +22°C° 0.5 mm 1 mps 576 mmHg 58%
    14:00 +22°C° 0.8 mm 1 mps 575 mmHg 60%
    15:00 +22°C° 0.8 mm 1 mps 575 mmHg 62%
    16:00 +20°C° 0.8 mm 2 mps 574 mmHg 64%
    17:00 +19°C° 0.5 mm 1 mps 574 mmHg 71%
    18:00 +18°C° 0.5 mm 1 mps 573 mmHg 79%
    19:00 +15°C° 0.5 mm 1 mps 573 mmHg 86%
    20:00 +14°C° 0.3 mm 1 mps 573 mmHg 88%
    21:00 +14°C° 0.3 mm 1 mps 574 mmHg 89%
    22:00 +14°C° 0.3 mm 1 mps 574 mmHg 91%
    23:00 +13°C° 0 mm 1 mps 574 mmHg 91%

    18 November, Sunday

    Time Temperature Precipitation Wind Pressure Humidity
    00:00 +13°C° 0 mm 1 mps 573 mmHg 91%
    01:00 +13°C° 0 mm 1 mps 573 mmHg 92%
    02:00 +13°C° 0.1 mm 1 mps 573 mmHg 91%
    03:00 +13°C° 0.1 mm 1 mps 572 mmHg 91%
    04:00 +13°C° 0.1 mm 1 mps 572 mmHg 91%
    05:00 +13°C° 0 mm 1 mps 573 mmHg 87%
    06:00 +13°C° 0 mm 0 mps 574 mmHg 84%
    07:00 +14°C° 0 mm 0 mps 574 mmHg 80%
    08:00 +19°C° 0 mm 1 mps 576 mmHg 69%
    09:00 +21°C° 0 mm 1 mps 577 mmHg 58%
    10:00 +24°C° 0 mm 1 mps 579 mmHg 47%
    11:00 +24°C° 0.3 mm 1 mps 578 mmHg 50%
    12:00 +24°C° 0.3 mm 1 mps 577 mmHg 53%
    13:00 +23°C° 0.3 mm 1 mps 576 mmHg 56%
    14:00 +23°C° 0.8 mm 1 mps 575 mmHg 57%
    15:00 +23°C° 0.8 mm 1 mps 575 mmHg 59%
    16:00 +21°C° 0.8 mm 2 mps 574 mmHg 61%
    17:00 +20°C° 0.9 mm 1 mps 574 mmHg 69%
    18:00 +18°C° 0.9 mm 1 mps 573 mmHg 78%
    19:00 +14°C° 0.9 mm 0 mps 573 mmHg 86%
    20:00 +14°C° 1.1 mm 0 mps 573 mmHg 88%
    21:00 +13°C° 1.1 mm 0 mps 574 mmHg 89%
    22:00 +13°C° 1.1 mm 0 mps 574 mmHg 91%
    23:00 +14°C° 0.2 mm 1 mps 574 mmHg 91%

    19 November, Monday

    Time Temperature Precipitation Wind Pressure Humidity
    00:00 +14°C° 0.2 mm 1 mps 573 mmHg 92%
    01:00 +13°C° 0.2 mm 1 mps 573 mmHg 92%
    02:00 +13°C° 0.1 mm 1 mps 573 mmHg 92%
    03:00 +12°C° 0.1 mm 0 mps 572 mmHg 93%
    04:00 +12°C° 0.1 mm 0 mps 572 mmHg 93%
    05:00 +12°C° 0 mm 0 mps 573 mmHg 90%
    06:00 +13°C° 0 mm 0 mps 574 mmHg 87%
    07:00 +14°C° 0 mm 0 mps 574 mmHg 84%
    08:00 +18°C° 0.1 mm 1 mps 576 mmHg 74%
    09:00 +21°C° 0.1 mm 1 mps 577 mmHg 63%
    10:00 +23°C° 0.1 mm 1 mps 578 mmHg 53%
    11:00 +22°C° 0.4 mm 1 mps 577 mmHg 57%
    12:00 +22°C° 0.4 mm 1 mps 576 mmHg 61%
    13:00 +21°C° 0.4 mm 1 mps 575 mmHg 65%
    14:00 +21°C° 1 mm 1 mps 574 mmHg 67%
    15:00 +21°C° 1 mm 1 mps 574 mmHg 69%
    16:00 +21°C° 1 mm 1 mps 573 mmHg 70%
    17:00 +19°C° 2.1 mm 1 mps 573 mmHg 77%
    18:00 +16°C° 2.1 mm 1 mps 573 mmHg 83%
    19:00 +14°C° 2.1 mm 0 mps 573 mmHg 89%
    20:00 +13°C° 2.2 mm 0 mps 573 mmHg 90%
    21:00 +13°C° 2.2 mm 0 mps 574 mmHg 91%
    22:00 +13°C° 2.2 mm 0 mps 574 mmHg 92%
    23:00 +13°C° 0.9 mm 0 mps 574 mmHg 92%

    20 November, Tuesday

    Time Temperature Precipitation Wind Pressure Humidity
    00:00 +13°C° 0.9 mm 0 mps 573 mmHg 92%
    01:00 +12°C° 0.9 mm 0 mps 573 mmHg 92%
    02:00 +12°C° 0.3 mm 0 mps 573 mmHg 92%
    03:00 +12°C° 0.3 mm 0 mps 573 mmHg 93%
    04:00 +13°C° 0.3 mm 1 mps 572 mmHg 93%
    05:00 +12°C° 0.1 mm 0 mps 573 mmHg 91%
    06:00 +13°C° 0.1 mm 0 mps 574 mmHg 89%
    07:00 +13°C° 0.1 mm 0 mps 575 mmHg 87%
    08:00 +15°C° 0.2 mm 0 mps 575 mmHg 80%
    09:00 +18°C° 0.2 mm 1 mps 576 mmHg 73%
    10:00 +20°C° 0.2 mm 1 mps 577 mmHg 67%
    11:00 +20°C° 0.4 mm 1 mps 577 mmHg 67%
    12:00 +20°C° 0.4 mm 1 mps 576 mmHg 67%
    13:00 +19°C° 0.4 mm 2 mps 576 mmHg 68%
    14:00 +19°C° 0.5 mm 2 mps 575 mmHg 70%
    15:00 +19°C° 0.5 mm 1 mps 575 mmHg 71%
    16:00 +19°C° 0.5 mm 1 mps 574 mmHg 73%
    17:00 +18°C° 0.2 mm 1 mps 574 mmHg 78%
    18:00 +15°C° 0.2 mm 1 mps 574 mmHg 83%
    19:00 +13°C° 0.2 mm 0 mps 574 mmHg 89%
    20:00 +13°C° 0 mm 0 mps 574 mmHg 90%
    21:00 +12°C° 0 mm 0 mps 574 mmHg 90%
    22:00 +12°C° 0 mm 0 mps 574 mmHg 91%
    23:00 +12°C° 0 mm 0 mps 574 mmHg 92%
    Show more